Date Time,Air Temp,Sky Temp,Clarity,Light Level,Rain Sensor,Readings
2016-12-23 00:00:04,19.2,-8.7,27.9,0.0,2.2,111
2016-12-23 00:05:04,19.2,-8.4,27.6,0.0,2.2,112
2016-12-23 00:10:04,19.2,-8.0,27.2,0.0,2.2,112
2016-12-23 00:15:04,19.3,-7.0,26.3,0.0,2.2,112
2016-12-23 00:20:04,19.4,-6.3,25.7,0.0,2.3,111
2016-12-23 00:25:04,19.4,-7.2,26.5,0.0,2.3,112
2016-12-23 00:30:05,19.4,-7.9,27.3,0.0,2.3,111
2016-12-23 00:35:05,19.4,-7.6,27.0,0.0,2.3,112
2016-12-23 00:40:05,19.5,-7.3,26.7,0.0,2.3,112
2016-12-23 00:45:05,19.5,-8.9,28.4,0.0,2.3,111
2016-12-23 00:50:05,19.1,-8.4,27.6,0.0,2.3,112
2016-12-23 00:55:05,19.5,-6.6,26.1,0.0,2.3,112
2016-12-23 01:00:05,19.6,-7.2,26.9,0.0,2.3,111
2016-12-23 01:05:05,19.7,-7.5,27.2,0.0,2.3,112
2016-12-23 01:10:05,19.5,-8.0,27.6,0.0,2.3,112
2016-12-23 01:15:05,19.4,-7.3,26.7,0.0,2.3,111
2016-12-23 01:20:05,19.4,-5.7,25.1,0.0,2.3,112
2016-12-23 01:25:05,19.5,-5.8,25.3,0.0,2.3,111
2016-12-23 01:30:05,19.6,-6.9,26.5,0.0,2.3,112
2016-12-23 01:35:05,19.6,-8.1,27.7,0.0,2.3,112
2016-12-23 01:40:05,19.6,-8.8,28.3,0.0,2.3,111
2016-12-23 01:45:05,19.5,-9.4,28.9,0.0,2.3,112
2016-12-23 01:50:05,19.5,-9.1,28.6,0.0,2.3,112
2016-12-23 01:55:05,19.6,-8.9,28.5,0.0,2.3,112
2016-12-23 02:00:05,19.8,-8.4,28.2,0.0,2.3,111
2016-12-23 02:05:05,20.0,-8.6,28.5,0.0,2.4,112
2016-12-23 02:10:05,20.0,-8.2,28.2,0.0,2.4,112
2016-12-23 02:15:05,19.9,-7.9,27.9,0.0,2.4,111
2016-12-23 02:20:05,20.0,-7.2,27.3,0.0,2.5,112
2016-12-23 02:25:05,20.1,-7.7,27.7,0.0,2.4,111
2016-12-23 02:30:05,20.1,-7.3,27.4,0.0,2.5,112
2016-12-23 02:35:05,20.0,-7.9,27.9,0.0,2.5,111
2016-12-23 02:40:05,20.1,-6.9,27.0,0.0,2.4,111
2016-12-23 02:45:05,20.3,-4.8,25.1,0.0,2.3,112
2016-12-23 02:50:05,20.3,-4.3,24.6,0.0,2.3,112
2016-12-23 02:55:05,20.1,-1.0,21.1,0.0,2.4,112
2016-12-23 03:00:05,18.7,-0.3,19.0,0.0,2.3,111
2016-12-23 03:05:05,16.6,2.0,14.6,0.0,2.2,111
2016-12-23 03:10:05,16.1,5.8,10.3,0.0,2.3,112
2016-12-23 03:15:05,16.1,4.9,11.1,0.0,2.3,111
2016-12-23 03:20:05,16.1,4.3,11.8,0.0,2.3,112
2016-12-23 03:25:05,16.2,4.1,12.0,0.0,2.3,111
2016-12-23 03:30:05,16.2,1.9,14.2,0.0,2.3,112
2016-12-23 03:35:05,16.1,3.5,12.6,0.0,2.3,111
2016-12-23 03:40:05,16.1,-2.0,18.1,0.0,2.3,112
2016-12-23 03:45:05,17.1,-2.6,19.8,0.0,2.3,112
2016-12-23 03:50:05,17.1,-2.7,19.8,0.0,2.3,111
2016-12-23 03:55:05,18.8,-6.0,24.9,0.0,2.2,112
2016-12-23 04:00:05,19.1,-0.7,19.7,0.0,2.2,111
2016-12-23 04:05:05,16.7,0.8,15.9,0.0,2.3,111
2016-12-23 04:10:05,16.0,1.3,14.7,0.0,2.3,111
2016-12-23 04:15:05,15.9,3.6,12.4,0.0,2.3,112
2016-12-23 04:20:05,16.0,0.9,15.1,0.0,2.3,111
2016-12-23 04:25:05,16.0,0.7,15.3,0.0,2.3,112
2016-12-23 04:30:05,16.0,1.6,14.4,0.0,2.3,111
2016-12-23 04:35:05,16.2,-2.5,18.7,0.0,2.3,112
2016-12-23 04:40:05,17.5,-1.6,19.1,0.0,2.3,111
2016-12-23 04:45:05,16.4,1.6,14.8,0.0,2.3,112
2016-12-23 04:50:05,16.1,3.9,12.1,0.0,2.3,111
2016-12-23 04:55:05,16.0,0.1,15.9,0.0,2.3,112
2016-12-23 05:00:05,15.9,-0.6,16.5,0.0,2.3,111
2016-12-23 05:05:05,16.9,-3.7,20.5,0.0,2.3,112
2016-12-23 05:10:05,19.0,-1.7,20.7,0.0,2.3,112
2016-12-23 05:15:05,19.2,-1.6,20.8,0.0,2.4,111
2016-12-23 05:20:05,19.6,-2.6,22.2,0.0,2.4,112
2016-12-23 05:25:05,20.0,-1.8,21.8,0.0,2.3,112
2016-12-23 05:30:05,20.2,-1.1,21.3,0.0,2.3,111
2016-12-23 05:35:05,20.2,-1.6,21.8,0.0,2.3,112
2016-12-23 05:40:05,20.2,-2.5,22.8,0.0,2.3,112
2016-12-23 05:45:05,20.2,-3.7,23.9,0.0,2.3,112
2016-12-23 05:50:05,20.1,-7.6,27.7,0.0,2.3,111
2016-12-23 05:55:05,20.1,-7.8,27.8,0.0,2.3,112
2016-12-23 06:00:05,20.2,-5.6,25.7,0.0,2.3,111
2016-12-23 06:05:04,20.2,-4.4,24.7,0.0,2.3,74
2016-12-23 06:10:04,18.9,3.2,15.8,0.0,2.3,111
2016-12-23 06:15:04,17.0,3.1,13.9,0.0,2.2,112
2016-12-23 06:20:04,16.5,5.1,11.4,0.0,2.1,111
2016-12-23 06:25:04,17.5,-6.5,24.0,0.0,2.2,111
2016-12-23 06:30:04,19.5,-6.8,26.3,0.0,2.4,112
2016-12-23 06:35:04,20.0,-4.9,24.9,0.0,2.3,112
2016-12-23 06:40:04,18.5,2.1,16.4,0.0,2.3,111
2016-12-23 06:45:04,16.8,4.7,12.1,0.0,2.2,112
2016-12-23 06:50:04,16.4,5.7,10.7,0.0,5.6,111
2016-12-23 06:55:04,16.3,5.8,10.5,0.0,2.5,112
2016-12-23 07:00:04,16.3,6.5,9.8,0.0,6.7,112
2016-12-23 07:05:04,16.2,4.0,12.2,0.2,3.6,111
2016-12-23 07:10:04,15.9,4.6,11.3,0.3,2.7,112
2016-12-23 07:15:04,16.1,5.4,10.7,0.6,2.4,111
2016-12-23 07:20:04,16.2,4.0,12.1,1.4,2.3,112
2016-12-23 07:25:04,16.2,0.5,15.7,3.1,2.3,111
2016-12-23 07:30:04,16.3,-2.3,18.6,5.5,2.2,111
2016-12-23 07:35:04,17.7,-4.2,22.0,9.1,2.3,112
2016-12-23 07:40:04,19.6,-1.6,21.2,12.9,2.3,112
2016-12-23 07:45:04,17.8,-0.5,18.4,17.9,2.5,111
2016-12-23 07:50:04,17.0,0.2,16.8,22.2,2.3,112
2016-12-23 07:55:04,18.9,-4.3,23.2,26.1,2.4,111
2016-12-23 08:00:04,20.4,-2.8,23.2,28.4,2.3,112
2016-12-23 08:05:04,20.5,0.5,20.0,29.3,2.3,111
2016-12-23 08:10:04,18.8,-0.8,19.6,30.0,2.3,112
2016-12-23 08:15:04,20.1,-4.4,24.5,30.6,2.3,111
2016-12-23 08:20:04,20.7,-4.3,25.1,31.1,2.1,112
2016-12-23 08:25:04,21.0,-2.3,23.3,31.4,1.9,112
2016-12-23 08:30:04,20.3,0.0,20.2,31.5,2.0,111
2016-12-23 08:35:04,20.3,-6.3,26.6,31.8,2.1,112
2016-12-23 08:40:04,21.0,-6.1,27.1,32.0,1.9,112
2016-12-23 08:45:04,21.1,-6.5,27.6,32.0,1.9,111
2016-12-23 08:50:04,21.2,-6.3,27.5,32.1,1.9,112
2016-12-23 08:55:04,21.2,-6.5,27.7,32.1,2.0,112
2016-12-23 09:00:04,21.2,-2.5,23.7,32.1,2.0,111
2016-12-23 09:05:04,20.8,0.8,20.0,32.1,2.0,111
2016-12-23 09:10:04,18.4,4.9,13.5,31.9,2.2,112
2016-12-23 09:15:04,17.6,6.1,11.5,32.0,2.3,111
2016-12-23 09:20:04,17.4,5.2,12.2,32.1,2.3,112
2016-12-23 09:25:04,17.3,5.6,11.7,32.1,2.3,112
2016-12-23 09:30:04,17.3,5.9,11.4,31.9,2.3,111
2016-12-23 09:35:04,17.4,6.1,11.2,31.9,2.3,112
2016-12-23 09:40:04,17.4,6.3,11.1,31.8,2.3,111
2016-12-23 09:45:04,17.4,6.2,11.2,32.0,2.3,112
2016-12-23 09:50:04,17.4,6.0,11.5,32.1,2.3,111
2016-12-23 09:55:04,17.4,5.7,11.7,32.2,2.3,112
2016-12-23 10:00:04,17.4,5.4,12.0,32.3,2.3,111
2016-12-23 10:05:04,17.5,5.0,12.4,32.3,2.3,111
2016-12-23 10:10:04,17.5,6.0,11.5,32.2,2.3,112
2016-12-23 10:15:04,17.6,5.8,11.8,32.3,2.3,112
2016-12-23 10:20:04,17.6,5.4,12.3,32.4,2.3,111
2016-12-23 10:25:04,17.7,5.6,12.1,32.4,2.3,112
2016-12-23 10:30:04,17.8,5.0,12.8,32.4,2.3,111
2016-12-23 10:35:04,17.8,5.6,12.1,32.2,2.3,111
2016-12-23 10:40:04,17.7,5.9,11.7,32.1,2.3,112
2016-12-23 10:45:04,17.6,5.9,11.7,32.0,2.3,111
2016-12-23 10:50:04,17.6,5.8,11.8,32.1,2.3,111
2016-12-23 10:55:04,17.5,5.9,11.5,32.2,2.3,112
2016-12-23 11:00:04,17.4,5.7,11.7,32.1,2.3,112
2016-12-23 11:05:04,17.3,6.0,11.4,32.2,2.3,111
2016-12-23 11:10:04,17.4,5.6,11.8,32.3,2.3,112
2016-12-23 11:15:04,17.4,6.0,11.5,32.3,2.3,111
2016-12-23 11:20:04,17.5,5.3,12.2,32.3,2.3,112
2016-12-23 11:25:04,17.5,4.7,12.8,32.1,2.3,112
2016-12-23 11:30:04,17.4,5.0,12.4,32.2,2.3,112
2016-12-23 11:35:04,17.4,5.3,12.0,32.2,2.3,111
2016-12-23 11:40:04,17.4,5.2,12.2,32.4,2.3,112
2016-12-23 11:45:05,17.5,5.0,12.6,32.3,2.3,111
2016-12-23 11:50:05,17.5,5.4,12.1,32.3,2.3,112
2016-12-23 11:55:05,17.5,5.5,12.0,32.3,2.3,111
2016-12-23 12:00:05,17.5,6.0,11.5,32.1,2.3,112
2016-12-23 12:05:05,17.5,5.5,12.0,32.1,2.3,111
2016-12-23 12:10:05,17.5,5.6,11.9,32.2,2.3,112
2016-12-23 12:15:05,17.5,5.3,12.1,32.2,2.3,112
2016-12-23 12:20:05,17.4,5.1,12.3,32.2,2.3,111
2016-12-23 12:25:05,17.4,4.8,12.6,32.3,2.3,112
2016-12-23 12:30:05,17.4,4.8,12.6,32.1,2.3,112
2016-12-23 12:35:05,17.4,4.9,12.5,32.1,2.4,112
2016-12-23 12:40:05,17.4,5.1,12.3,32.1,2.3,111
2016-12-23 12:45:05,17.3,5.2,12.2,32.0,2.3,112
2016-12-23 12:50:05,17.2,5.4,11.8,31.8,2.5,111
2016-12-23 12:55:05,17.2,4.5,12.6,31.7,2.5,111
2016-12-23 13:00:05,17.1,5.4,11.8,31.6,2.4,112
2016-12-23 13:05:05,17.1,5.3,11.8,31.8,2.5,112
2016-12-23 13:10:05,17.1,5.4,11.8,32.0,2.3,111
2016-12-23 13:15:05,17.1,5.3,11.9,32.0,2.3,112
2016-12-23 13:20:05,17.2,5.2,11.9,32.1,2.3,111
2016-12-23 13:25:05,17.2,5.0,12.2,32.2,2.3,112
2016-12-23 13:30:05,17.3,5.3,12.0,32.1,2.3,112
2016-12-23 13:35:05,17.3,5.1,12.3,32.1,2.3,112
2016-12-23 13:40:05,17.4,5.0,12.4,32.1,2.3,112
2016-12-23 13:45:05,17.4,4.9,12.5,32.1,2.3,111
2016-12-23 13:50:05,17.4,5.0,12.4,32.0,2.3,112
2016-12-23 13:55:05,17.4,5.0,12.4,32.0,2.3,112
2016-12-23 14:00:05,17.4,4.5,12.8,32.1,2.3,111
2016-12-23 14:05:05,17.4,4.9,12.5,32.1,2.3,112
2016-12-23 14:10:05,17.3,5.0,12.3,31.9,2.3,111
2016-12-23 14:15:05,17.3,5.1,12.1,32.0,2.3,112
2016-12-23 14:20:05,17.3,5.2,12.1,31.9,2.3,111
2016-12-23 14:25:05,17.3,5.3,12.0,31.9,2.3,112
2016-12-23 14:30:05,17.4,5.1,12.3,31.9,2.7,112
2016-12-23 14:35:05,17.3,5.5,11.8,31.9,2.3,111
2016-12-23 14:40:05,17.4,5.6,11.8,31.9,2.3,112
2016-12-23 14:45:05,17.5,5.4,12.0,31.7,2.3,112
2016-12-23 14:50:05,17.5,5.3,12.2,31.6,2.3,111
2016-12-23 14:55:05,17.6,4.6,13.0,31.9,2.3,112
2016-12-23 15:00:05,17.6,4.0,13.6,32.0,2.3,111
2016-12-23 15:05:05,17.7,4.6,13.0,31.8,2.3,112
2016-12-23 15:10:05,17.7,5.1,12.5,31.0,2.3,111
2016-12-23 15:15:05,17.7,5.1,12.6,30.4,2.3,112
2016-12-23 15:20:05,17.7,5.3,12.4,30.1,2.3,112
2016-12-23 15:25:05,17.7,5.2,12.4,29.6,2.3,111
2016-12-23 15:30:05,17.7,4.9,12.8,29.4,2.3,112
2016-12-23 15:35:05,17.6,5.1,12.5,28.8,2.5,112
2016-12-23 15:40:05,17.4,4.2,13.2,29.1,14.9,111
2016-12-23 15:45:05,16.6,6.4,10.2,29.0,30.2,111
2016-12-23 15:50:05,16.1,7.2,8.9,28.4,26.2,112
2016-12-23 15:55:05,16.1,7.1,9.0,26.3,19.3,111
2016-12-23 16:00:05,16.4,6.8,9.6,25.7,8.2,111
2016-12-23 16:05:05,16.8,6.9,9.9,22.8,8.0,112
2016-12-23 16:10:05,17.0,7.1,9.9,21.9,4.4,111
2016-12-23 16:15:05,17.0,7.1,9.9,17.3,2.9,112
2016-12-23 16:20:05,17.0,4.7,12.3,14.7,4.2,111
2016-12-23 16:25:05,16.8,6.0,10.9,10.2,11.6,111
2016-12-23 16:30:05,16.8,7.0,9.8,6.0,8.5,112
2016-12-23 16:35:05,16.9,7.1,9.8,4.1,13.9,111
2016-12-23 16:40:05,16.6,6.5,10.0,2.8,29.9,112
2016-12-23 16:45:05,16.0,6.8,9.2,1.6,29.0,111
2016-12-23 16:50:05,15.8,6.9,8.9,0.9,26.5,111
2016-12-23 16:55:05,15.8,7.1,8.8,0.6,26.1,112
2016-12-23 17:00:05,15.8,7.2,8.6,0.3,29.0,111
2016-12-23 17:05:05,15.8,7.2,8.5,0.2,28.1,112
2016-12-23 17:10:05,15.9,7.4,8.5,0.1,26.4,111
2016-12-23 17:15:05,15.9,7.5,8.4,0.1,24.0,112
2016-12-23 17:20:05,16.2,7.6,8.6,0.0,16.5,111
2016-12-23 17:25:05,16.5,7.5,9.0,0.0,19.6,112
2016-12-23 17:30:05,16.2,7.0,9.2,0.0,22.3,111
2016-12-23 17:35:05,16.6,7.4,9.2,0.0,6.9,112
2016-12-23 17:40:05,17.1,7.4,9.6,0.0,10.2,112
2016-12-23 17:45:05,16.9,7.0,9.9,0.1,25.9,111
2016-12-23 17:50:05,16.4,6.9,9.5,0.1,26.2,111
2016-12-23 17:55:05,16.4,7.4,9.0,0.1,24.1,111
2016-12-23 18:00:05,16.5,7.4,9.1,0.1,20.7,112
2016-12-23 18:05:05,16.5,7.3,9.2,0.1,22.9,111
2016-12-23 18:10:05,16.5,7.6,8.9,0.1,24.1,112
2016-12-23 18:15:05,16.6,7.4,9.2,0.1,19.4,111
2016-12-23 18:20:05,16.9,8.7,8.2,0.1,13.1,111
2016-12-23 18:25:05,17.1,7.6,9.5,0.1,19.0,112
2016-12-23 18:30:05,16.9,7.2,9.8,0.1,24.1,111
2016-12-23 18:35:05,16.9,7.6,9.3,0.2,16.8,112
2016-12-23 18:40:05,17.1,7.9,9.2,0.2,19.4,111
2016-12-23 18:45:05,17.1,7.6,9.5,0.2,20.2,111
2016-12-23 18:50:05,16.9,7.5,9.5,0.2,28.4,112
2016-12-23 18:55:05,16.9,7.4,9.4,0.2,25.1,111
2016-12-23 19:00:05,17.3,7.5,9.8,0.2,23.4,112
2016-12-23 19:05:05,16.9,7.0,9.9,0.3,24.5,111
2016-12-23 19:10:05,16.8,5.0,11.8,0.3,30.7,111
2016-12-23 19:15:05,16.6,4.9,11.8,0.4,18.8,112
2016-12-23 19:20:05,16.6,4.8,11.8,0.4,9.1,112
2016-12-23 19:25:05,16.6,4.9,11.7,0.5,9.4,111
2016-12-23 19:30:05,16.5,5.3,11.2,0.5,8.3,112
2016-12-23 19:35:05,16.3,4.7,11.5,0.6,2.8,111
2016-12-23 19:40:05,15.9,5.6,10.3,0.5,2.3,112
2016-12-23 19:45:05,15.8,1.1,14.6,0.6,2.3,111
2016-12-23 19:50:05,17.7,-9.4,27.2,0.5,2.3,112
2016-12-23 19:55:05,19.4,-11.6,31.0,0.5,2.3,111
2016-12-23 20:00:05,19.8,-11.1,30.9,0.5,2.4,112
2016-12-23 20:05:05,19.9,-10.4,30.3,0.5,2.5,112
2016-12-23 20:10:05,20.0,-9.8,29.8,0.5,2.5,112
2016-12-23 20:15:05,20.0,-10.5,30.5,0.5,2.5,112
2016-12-23 20:20:05,20.0,-11.3,31.3,0.4,2.5,111
2016-12-23 20:25:05,20.0,-12.3,32.3,0.4,2.5,111
2016-12-23 20:30:05,19.9,-13.7,33.6,0.3,2.5,112
2016-12-23 20:35:05,19.9,-13.7,33.6,0.3,2.5,111
2016-12-23 20:40:05,19.9,-13.2,33.1,0.3,2.5,112
2016-12-23 20:45:05,19.9,-12.4,32.3,0.3,2.4,112
2016-12-23 20:50:05,19.8,-11.6,31.5,0.3,2.4,111
2016-12-23 20:55:05,19.8,-11.4,31.2,0.3,2.3,111
2016-12-23 21:00:05,19.8,-12.1,31.9,0.3,2.3,111
2016-12-23 21:05:05,19.8,-12.4,32.2,0.2,2.3,111
2016-12-23 21:10:05,19.7,-12.9,32.6,0.2,2.4,112
2016-12-23 21:15:05,19.7,-13.4,33.1,0.2,2.4,111
2016-12-23 21:20:05,19.7,-13.6,33.3,0.2,2.3,112
2016-12-23 21:25:05,19.6,-13.5,33.1,0.2,2.3,111
2016-12-23 21:30:05,19.6,-13.5,33.1,0.2,2.3,112
2016-12-23 21:35:05,19.6,-13.2,32.7,0.2,2.4,111
2016-12-23 21:40:05,19.6,-12.1,31.7,0.1,2.4,112
2016-12-23 21:45:05,19.6,-9.2,28.8,0.2,2.5,111
2016-12-23 21:50:05,19.6,-9.4,29.1,0.2,2.5,112
2016-12-23 21:55:05,19.6,-8.8,28.5,0.1,2.5,112
2016-12-23 22:00:05,19.6,-8.9,28.5,0.2,2.5,112
2016-12-23 22:05:05,19.7,-14.0,33.7,0.1,2.4,111
2016-12-23 22:10:05,19.6,-14.2,33.8,0.1,2.3,111
2016-12-23 22:15:05,19.4,-14.5,33.9,0.1,2.3,112
2016-12-23 22:20:05,19.3,-14.9,34.2,0.1,2.3,111
2016-12-23 22:25:05,19.3,-14.9,34.2,0.1,2.3,112
2016-12-23 22:30:05,19.3,-15.0,34.3,0.1,2.3,111
2016-12-23 22:35:05,19.2,-14.9,34.2,0.1,2.3,112
2016-12-23 22:40:05,19.2,-13.7,32.9,0.1,2.2,111
2016-12-23 22:45:05,19.3,-5.1,24.3,0.1,2.2,112
2016-12-23 22:50:05,17.4,0.1,17.3,0.2,2.2,112
2016-12-23 22:55:05,15.8,0.9,14.9,0.2,2.5,111
2016-12-23 23:00:05,15.1,-0.8,15.9,0.2,2.4,112
2016-12-23 23:05:05,15.3,-1.8,17.0,0.1,2.3,111
2016-12-23 23:10:05,15.3,-0.2,15.5,0.1,2.3,112
2016-12-23 23:15:05,15.3,0.6,14.7,0.2,2.3,111
2016-12-23 23:20:05,15.4,0.9,14.5,0.2,2.3,111
2016-12-23 23:25:05,15.5,1.2,14.3,0.2,2.3,111
2016-12-23 23:30:05,15.5,1.5,14.0,0.2,10.1,111
2016-12-23 23:35:05,15.6,-3.0,18.6,0.2,5.3,112
2016-12-23 23:40:05,15.6,-0.6,16.2,0.2,2.4,111
2016-12-23 23:45:05,15.2,-0.8,16.0,0.2,2.3,112
2016-12-23 23:50:05,16.9,-8.3,25.3,0.1,2.4,112
2016-12-23 23:55:05,18.8,-9.1,27.8,0.1,2.3,112
